STARLINK-1316 (45415 NORAD) Tracking and Keplerian Element Data

This shows tracking and keplerian element data for the satellite.

Feedback or suggestion? Click here.




ElementValue
Catalog45415
NameSTARLINK-1316
Epoch Orbit1783
Epoch Day190.25001157
Epoch Year2020
RAAN71.2672
Inclination52.9988
Eccentricity0.0001474
Argument of Perigee61.9365
Mean Anonmoly22.5996
Mean Motion15.12633441
Decay Rate-0.01091457
L11 45415U 20019BH 20190.25001157 -.01091457 00000-0 -66762-1 0 9991
L22 45415 52.9988 71.2672 0001474 61.9365 22.5996 15.12633441 17835

Live tracking and technical data element details for STARLINK-1316 (NORAD 45415). STARLINK-1316 can be tracked NOW for your location showing map with azimuth and elevation plus other details from your city location.

Track the satellite on the map from your city or location and see movement details for azimuth, elevation, latitude, longitude, range, height, and movement on the map or in text.







IsCatalogInMostPopularTable: catalog: 45415, numindb: 30
Update: records affected: 1



GetName: 45415 STARLINK-1316

Hit Count: updated at: Fri, 10 Jul 2020 02:37:58 GMT